Lapse_Rate
6.1 6.2 6.2 6.1 6.2 6.2 6.2 6.3 6.2 6.1 6.2 6.2 6.2 6.1 6.1 6.2 6.2 6.3 6.4 6.4 6.4 6.4 6.4 6.4 6.5 6.6 6.5 6.6 6.6 6.7 6.8 6.8 6.8 6.7 6.6 6.4 6.3 6.2 5.9 5.8 5.8 6.0 5.9 6.1 6.3 6.7 7.0
6.1 6.2 6.3 6.3 6.2 6.2 6.3 6.2 6.2 6.2 6.1 6.1 6.1 6.0 6.1 6.2 6.2 6.3 6.4 6.5 6.5 6.5 6.5 6.5 6.5 6.7 6.7 6.7 6.7 6.7 6.8 6.8 6.8 6.8 6.6 6.4 6.4 6.3 6.3 6.1 6.0 6.1 6.2 6.4 6.6 6.6 7.0
6.4 6.3 6.3 6.3 6.4 6.4 6.3 6.2 6.1 6.2 6.2 6.1 6.1 6.1 6.0 6.1 6.2 6.3 6.3 6.4 6.5 6.6 6.5 6.5 6.6 6.7 6.8 6.7 6.8 6.8 6.8 6.8 6.8 6.7 6.7 6.6 6.5 6.4 6.4 6.2 6.2 6.2 6.6 6.9 6.9 6.8 6.8
6.2 6.3 6.3 6.4 6.4 6.4 6.3 6.2 6.2 6.2 6.3 6.3 6.2 6.2 6.1 6.1 6.2 6.3 6.4 6.4 6.5 6.6 6.6 6.6 6.7 6.8 6.8 6.9 6.9 6.9 6.9 6.9 6.9 6.8 6.7 6.7 6.6 6.5 6.7 6.5 6.4 6.3 6.3 6.3 6.9 6.7 6.5
6.2 6.2 6.3 6.4 6.4 6.4 6.4 6.4 6.4 6.4 6.4 6.4 6.5 6.5 6.4 6.3 6.2 6.4 6.5 6.5 6.6 6.7 6.8 6.8 6.9 6.9 7.0 7.0 7.0 7.1 7.1 6.9 6.9 6.8 6.7 6.6 6.5 6.6 6.7 6.6 6.6 6.2 5.9 6.2 6.6 6.6 6.4
6.2 6.3 6.3 6.2 6.3 6.4 6.4 6.5 6.6 6.6 6.6 6.6 6.6 6.6 6.6 6.5 6.4 6.6 6.7 6.7 6.9 6.9 7.0 6.9 7.0 7.1 7.0 7.1 7.2 7.3 7.2 7.2 7.1 7.1 7.1 6.9 6.8 6.7 6.5 6.2 5.7 5.7 5.7 6.3 6.2 6.4 6.9
6.3 6.4 6.4 6.3 6.3 6.5 6.7 6.8 6.8 6.8 6.9 6.9 6.9 6.9 6.9 6.8 6.8 6.8 6.9 7.0 7.0 7.3 7.1 7.1 7.2 7.2 7.2 7.2 7.3 7.4 7.4 7.4 7.3 7.2 7.2 7.2 7.1 6.8 6.4 6.4 6.1 6.1 6.1 6.0 6.6 6.3 6.7
6.4 6.5 6.5 6.6 6.5 6.5 6.7 6.8 6.8 6.9 7.1 7.0 7.0 7.1 7.2 7.2 7.1 7.2 7.2 7.2 7.2 7.2 7.6 7.5 7.5 7.4 7.4 7.4 7.5 7.6 7.6 7.6 7.6 7.5 7.5 7.4 7.4 7.0 6.9 6.6 6.5 6.2 6.2 6.4 6.7 6.6 6.6
6.5 6.6 6.7 6.7 6.7 6.7 6.8 6.8 6.9 6.9 7.2 7.4 7.3 7.2 7.2 7.3 7.3 7.3 7.4 7.4 7.4 7.5 7.7 7.8 7.7 7.5 7.5 7.6 7.7 7.7 7.7 7.8 7.9 7.8 7.6 7.6 7.4 7.3 7.2 7.0 6.7 6.8 6.6 6.3 5.9 6.8 7.1
6.6 6.6 6.5 6.6 6.6 6.6 6.5 6.5 6.6 6.8 7.2 7.3 7.7 7.6 7.3 7.3 7.5 7.4 7.5 7.6 7.6 7.6 7.7 7.7 7.6 7.7 7.7 7.8 7.8 7.8 7.8 7.7 7.9 7.9 7.8 7.8 7.7 7.5 7.3 7.1 6.6 6.8 6.7 6.5 6.2 6.3 6.4
6.7 6.5 6.6 6.5 6.3 6.3 6.4 6.3 6.7 7.0 7.0 7.1 7.5 7.6 7.8 7.5 7.4 7.5 7.5 7.5 7.6 7.7 5.2 7.8 7.7 7.8 7.8 7.9 7.8 8.0 7.9 7.9 7.8 7.8 7.8 8.0 8.0 7.8 7.4 7.0 6.8 6.8 6.7 6.8 6.6 6.4 6.2
6.2 6.5 6.6 6.6 6.5 6.4 6.5 6.5 6.5 6.6 6.8 7.1 7.3 7.7 7.7 7.9 7.8 7.5 7.5 7.5 7.6 7.7 7.4 8.0 8.0 8.0 8.0 7.9 7.9 7.9 7.8 7.9 7.9 8.1 8.1 8.0 7.9 7.8 7.6 7.3 7.1 6.8 6.9 7.1 6.7 6.5 5.2
6.0 6.1 6.1 6.1 6.3 6.3 6.5 6.6 6.8 6.8 6.8 7.1 7.3 7.4 7.6 7.6 7.8 7.8 7.5 7.5 7.5 7.8 8.2 8.0 8.0 7.9 7.9 8.0 8.0 7.9 7.9 7.8 7.9 7.7 8.1 8.2 8.1 7.9 7.7 7.6 7.3 7.1 6.9 5.4 5.6 5.4 5.2
5.8 5.8 5.8 5.9 5.9 6.0 6.2 6.5 6.6 6.7 6.8 7.2 7.2 7.3 7.6 7.6 7.6 7.6 7.5 7.5 7.2 8.1 8.3 8.6 8.4 8.0 7.9 8.1 7.9 7.9 7.8 8.0 8.0 7.7 7.7 7.8 8.2 8.0 7.7 7.4 7.1 6.9 6.5 6.0 5.6 4.5 4.7
5.8 5.9 6.0 6.0 6.0 6.1 6.3 6.4 6.5 6.5 6.7 6.7 6.8 6.7 7.1 7.8 7.7 7.7 7.5 7.0 7.5 8.1 8.4 8.5 8.3 8.2 8.1 8.2 7.9 7.8 7.9 8.0 8.0 8.0 7.8 7.5 8.0 8.0 7.8 7.7 7.3 7.0 6.8 6.3 5.8 5.2 4.3
6.1 6.2 6.2 6.2 6.2 6.3 6.3 6.4 6.5 6.7 6.7 6.8 6.8 6.9 6.8 7.1 7.2 7.4 7.3 7.2 7.7 8.0 8.3 8.0 7.9 8.0 7.9 8.0 8.0 7.8 7.6 8.1 8.0 8.0 7.7 7.4 7.2 8.1 7.8 7.8 7.4 7.2 6.9 6.5 6.4 5.1 5.1
6.5 6.5 6.5 6.6 6.7 6.7 6.7 6.8 6.9 6.8 6.9 7.0 6.9 6.8 7.0 7.1 7.2 6.9 6.8 7.2 7.6 7.9 7.9 7.8 7.7 7.6 7.7 7.8 7.9 7.7 7.5 7.9 7.9 7.8 7.5 7.4 6.9 7.6 7.6 7.7 7.5 7.1 7.1 6.8 6.2 6.0 4.9
6.3 6.5 6.4 6.4 6.4 6.5 6.7 6.8 6.8 7.1 7.1 7.0 7.2 6.8 6.8 6.8 6.5 6.5 6.8 6.9 6.9 6.9 7.2 7.2 7.1 7.2 7.2 7.2 7.1 7.2 7.2 7.6 7.6 7.5 7.1 7.1 6.5 6.6 7.3 7.3 7.4 7.1 7.0 6.8 6.4 5.9 5.9
6.0 5.9 6.1 5.9 5.7 5.8 5.9 6.1 6.3 6.4 6.9 6.9 6.9 7.0 6.7 6.7 6.4 6.6 6.3 6.0 6.2 6.3 6.5 6.5 6.7 6.8 6.8 6.8 6.7 6.8 6.8 7.1 7.3 7.1 6.7 6.9 6.3 6.2 6.7 7.0 7.0 6.9 6.8 6.5 6.4 6.2 5.8
5.6 5.7 5.7 5.7 5.5 5.5 5.5 5.7 5.8 6.0 6.1 6.4 6.5 6.4 6.6 6.5 6.3 6.2 6.0 5.9 5.9 5.8 5.8 6.0 6.2 6.4 6.3 6.3 6.4 6.3 6.3 6.6 6.7 6.3 6.2 6.2 5.9 6.2 6.3 6.8 6.7 6.6 6.8 6.5 6.0 5.8 6.1
5.8 5.8 5.6 5.4 5.4 5.5 5.8 5.7 5.9 5.9 6.0 6.0 6.3 6.2 6.6 6.3 6.1 6.0 5.9 5.8 5.8 5.6 5.6 5.6 5.8 5.9 5.7 5.7 5.9 6.1 6.1 6.0 5.9 6.0 6.1 5.9 5.7 5.9 6.0 6.4 6.4 6.2 6.5 6.8 6.1 6.5 5.4
5.4 5.4 5.4 5.4 5.7 5.9 6.3 6.6 6.5 6.5 6.3 6.2 6.1 6.2 6.4 6.5 6.1 6.0 5.8 5.6 5.6 5.5 5.5 5.7 5.5 5.8 5.9 6.1 6.1 6.0 5.9 5.8 5.7 6.0 6.0 5.9 5.4 5.5 5.4 6.0 6.3 5.8 6.1 6.7 6.8 6.8 6.4
5.5 5.5 5.7 5.7 5.7 5.9 6.6 6.8 6.7 6.5 6.2 6.0 5.9 5.9 6.0 6.0 5.8 5.8 5.5 5.6 5.4 5.3 5.5 5.3 5.7 5.9 6.5 6.6 6.6 6.3 6.0 6.0 5.8 5.7 5.8 5.4 5.3 5.3 4.8 5.5 5.7 5.1 6.0 7.1 7.4 7.5 7.6
5.3 5.4 5.7 6.2 6.6 6.6 6.5 6.2 6.4 6.3 6.2 5.9 5.7 5.4 5.2 5.3 5.4 5.2 5.1 4.8 4.9 4.9 4.5 5.2 5.2 5.3 5.5 5.7 6.0 6.0 6.0 5.9 5.8 5.9 5.6 5.3 5.4 5.5 5.0 5.3 4.4 5.3 5.7 6.4 6.6 7.1 7.6
5.3 5.4 5.7 5.9 6.2 6.3 6.1 6.0 5.7 5.5 5.5 5.5 5.4 5.1 4.9 4.9 4.8 4.9 4.8 4.7 4.9 5.0 4.9 4.5 4.8 4.8 4.8 5.0 5.4 5.6 5.5 5.8 6.4 6.4 6.0 5.8 5.6 5.5 5.4 5.4 5.1 5.3 6.4 6.7 6.4 6.9 7.7
5.8 5.7 6.0 6.1 6.0 5.7 5.5 5.3 5.1 4.7 4.3 4.4 4.4 4.2 4.3 4.2 4.2 4.0 4.0 4.1 3.8 4.1 4.4 4.2 4.2 4.2 4.1 4.1 4.1 4.3 4.7 5.4 5.5 5.7 5.9 6.1 5.9 5.8 5.6 5.2 4.6 5.6 6.1 6.4 7.2 5.9 8.2
6.1 6.1 5.9 5.8 5.6 5.4 5.3 4.9 4.4 4.0 3.3 3.3 3.2 3.2 3.1 3.2 3.5 3.2 3.2 3.4 3.3 3.0 3.0 3.3 3.6 4.5 4.6 4.4 4.3 4.2 4.3 4.6 4.8 5.0 5.4 5.7 5.3 5.2 5.2 5.6 4.9 5.1 5.7 6.7 6.2 7.0 7.6
5.8 5.7 5.5 5.3 5.2 5.0 4.6 4.4 4.0 3.7 3.3 3.2 3.0 2.9 2.8 2.8 3.0 2.9 3.2 3.1 3.3 3.7 3.3 3.3 2.9 3.4 3.7 4.0 4.2 4.6 4.5 4.8 4.6 4.7 4.9 5.3 5.5 5.1 5.1 5.2 4.7 5.3 6.4 6.7 7.2 6.9 7.1
5.3 5.1 4.8 4.6 4.4 4.4 4.2 4.0 3.9 3.6 3.2 3.3 3.1 3.3 3.4 3.1 2.8 2.7 2.9 3.8 4.3 4.1 3.8 3.4 3.1 3.7 4.1 4.2 4.3 4.0 4.0 4.3 4.6 3.8 5.0 5.1 5.3 5.7 5.8 5.5 6.2 6.3 6.8 7.2 7.0 6.7 7.0
Wind_Speed
10 11 11 12 13 13 14 14 15 16 17 18 18 16 14 14 14 13 12 12 12 12 11 11 13 15 3 2 5 2 3 3 3 3 4 3 4 1 2 2 4 4 4 5 8 13 11
11 11 12 12 13 13 13 14 15 16 18 19 20 18 17 15 14 14 14 12 11 10 10 9 11 12 1 2 1 5 3 1 1 2 2 2 1 2 2 3 2 3 7 16 11 10 6
11 12 12 13 12 14 14 15 16 16 17 19 20 20 19 17 15 13 14 13 12 9 8 8 7 3 1 8 1 3 2 1 2 2 1 2 3 2 1 4 2 5 8 9 3 2 5
12 12 13 13 14 14 15 16 17 17 18 19 19 20 20 18 17 15 14 13 12 9 6 5 5 1 5 1 0 1 3 3 1 3 2 2 3 2 2 4 5 4 0 6 7 4 4
12 12 13 14 14 15 16 16 17 18 19 20 21 21 21 20 18 17 16 14 10 6 3 2 2 2 7 2 2 1 4 1 0 1 1 1 2 0 3 3 4 4 5 6 9 3 4
11 12 13 14 16 16 17 17 18 19 20 21 22 22 23 22 20 18 15 5 2 1 1 1 1 3 4 2 1 0 2 1 1 2 2 3 4 2 3 4 4 7 6 5 9 6 3
11 12 12 13 14 16 17 18 18 19 20 22 23 24 25 24 22 15 5 2 5 2 2 6 2 3 3 6 1 1 2 2 1 4 2 2 3 5 8 6 5 5 4 8 14 7 4
9 10 11 12 13 14 15 17 19 19 21 22 24 25 27 26 22 8 3 5 2 2 7 4 5 5 5 1 3 1 2 1 2 2 2 4 4 3 5 6 6 5 7 8 8 3 3
12 13 15 16 20 21 22 21 20 21 22 23 24 26 28 29 14 5 3 3 1 3 1 5 4 3 1 3 3 2 4 1 0 2 1 3 5 6 2 7 5 4 5 5 6 10 1
17 17 18 19 20 21 20 21 23 24 24 25 25 26 27 33 4 2 2 4 1 2 4 3 2 1 2 2 3 1 1 1 1 2 3 5 4 3 5 5 1 6 4 5 11 4 2
15 16 18 19 19 19 20 21 22 23 23 24 26 26 25 11 2 2 3 5 1 2 4 2 2 1 2 2 3 1 2 2 2 2 3 6 2 3 4 3 2 9 6 7 2 0 3
15 15 17 19 20 21 20 21 22 23 25 25 26 24 24 2 3 2 5 3 2 5 5 2 1 1 3 1 2 1 0 2 0 2 2 7 3 3 4 4 3 9 5 1 2 1 2
16 17 17 18 19 20 21 23 24 25 26 26 28 26 12 1 3 6 3 2 5 4 1 2 2 1 0 2 2 2 1 3 1 5 5 5 2 3 1 5 1 8 6 5 6 5 4
15 16 17 19 20 21 22 23 24 26 29 29 31 25 2 4 3 5 2 5 2 5 6 0 1 1 4 4 3 1 1 3 3 3 2 3 8 1 0 1 2 4 2 4 4 3 6
14 15 17 17 19 21 22 25 28 30 31 34 25 3 3 3 1 2 4 2 7 7 2 3 1 2 3 2 2 1 4 4 6 8 5 3 6 3 2 1 3 1 3 2 1 1 2
15 15 15 16 18 20 24 27 29 30 31 32 4 4 2 5 1 3 4 7 6 5 2 1 5 6 5 3 3 2 2 4 3 6 2 4 3 2 2 2 2 1 3 2 2 4 5
14 17 14 15 18 20 23 26 28 31 32 26 3 4 3 6 2 4 4 7 5 5 4 6 5 4 7 4 4 3 4 4 5 4 2 4 3 5 1 4 5 1 1 2 3 3 2
14 15 17 19 21 21 23 25 27 28 30 10 4 2 3 3 2 0 3 4 4 4 1 4 2 7 6 5 5 5 7 6 5 7 6 5 4 4 8 1 1 2 4 4 4 3 2
12 13 15 17 18 18 20 24 27 28 23 4 5 3 3 3 3 2 5 5 3 3 2 2 3 4 1 4 3 6 3 3 6 6 6 5 2 2 8 4 2 3 4 3 4 3 5
11 12 14 14 16 17 19 22 26 28 27 3 3 4 4 3 1 1 4 4 4 6 3 2 3 0 1 3 5 4 3 1 3 3 3 5 4 6 7 7 2 3 4 4 4 3 3
11 12 14 14 16 17 20 20 25 30 30 1 2 3 2 4 3 3 3 3 4 5 3 5 1 6 4 3 3 4 2 6 1 3 2 2 5 4 6 8 4 5 10 8 9 7 8
10 11 12 14 15 16 16 18 21 27 27 3 3 3 4 4 4 5 2 2 2 6 4 3 5 13 6 3 4 7 8 3 6 4 1 1 4 3 4 9 9 8 9 11 14 12 15
12 12 13 13 14 14 15 16 17 19 15 3 3 3 2 5 4 3 2 4 5 9 4 5 10 9 8 4 9 11 13 12 10 7 6 5 4 2 10 3 7 7 11 15 7 6 6
15 15 14 12 12 13 14 14 13 12 8 2 1 1 2 4 3 2 7 9 11 9 10 12 13 8 4 15 17 8 9 14 16 15 13 7 5 4 4 1 12 6 3 6 9 9 13
15 14 14 14 14 13 14 15 14 12 9 2 1 1 1 5 3 9 7 4 6 10 8 9 10 5 7 7 5 6 4 5 9 16 16 17 7 3 5 6 14 12 15 7 7 10 10
15 16 15 15 16 15 15 15 16 16 13 1 2 2 2 1 3 1 4 4 6 4 5 3 5 8 4 2 3 4 5 4 4 1 5 7 3 8 3 4 7 4 2 3 4 6 13
16 16 17 18 17 17 17 17 17 17 16 3 2 5 2 4 5 4 3 2 2 4 4 6 4 7 4 2 4 7 9 4 5 6 6 4 2 15 13 11 9 6 5 4 2 7 3
17 17 18 19 19 19 20 21 19 19 18 8 3 13 4 3 8 9 4 5 4 3 3 3 6 1 2 3 3 4 4 5 6 7 5 8 7 5 6 8 17 7 5 8 5 3 2
18 20 20 21 21 21 22 21 22 21 21 18 4 6 11 4 4 5 7 12 12 15 8 4 5 4 3 2 3 3 5 5 9 6 4 8 13 5 10 6 3 5 6 6 1 2 3
Wind_Direction
36 35 27 27 21 20 15 12 11 7 7 5 2 356 347 338 329 324 319 317 317 321 323 322 326 327 331 339 256 177 162 11 18 30 48 48 53 55 308 314 311 213 273 269 262 278 275
34 27 24 22 18 15 15 11 8 7 7 5 5 360 351 343 335 327 321 316 313 313 315 320 327 329 320 293 119 157 159 9 14 51 28 55 120 193 263 249 190 267 276 280 279 272 253
29 23 20 19 18 12 11 10 6 5 5 3 2 359 352 345 336 328 320 314 310 305 310 318 330 350 10 231 52 169 162 197 177 172 250 189 165 63 352 288 314 286 312 317 255 252 276
27 25 16 17 13 12 11 8 5 3 1 1 358 355 352 343 336 326 318 308 301 299 305 312 336 31 250 282 261 234 158 290 244 233 213 199 171 198 197 306 337 322 232 340 287 297 278
26 20 18 15 13 10 8 7 4 2 1 360 356 352 348 342 334 325 315 310 287 274 255 300 41 68 275 326 294 277 163 248 8 72 311 93 71 307 1 5 349 10 286 291 314 204 273
25 25 20 18 12 9 6 5 4 1 360 357 354 349 346 341 333 325 318 315 126 140 40 94 68 31 279 292 276 342 132 154 32 336 54 64 39 2 19 54 293 292 313 280 269 282 228
27 21 16 14 12 6 1 360 359 359 357 353 351 347 345 342 335 334 8 28 15 342 27 207 175 256 269 296 17 195 139 108 84 62 12 17 24 272 269 219 246 280 247 257 282 274 278
20 13 2 359 357 359 358 354 351 353 352 350 348 346 345 342 338 341 58 74 151 204 311 246 245 279 248 236 310 278 109 19 49 299 322 6 242 232 273 256 250 244 275 286 282 214 303
3 7 3 13 16 11 3 353 343 343 344 343 344 345 344 339 338 26 64 113 299 151 273 298 213 203 246 148 275 283 144 84 93 315 239 195 254 321 267 307 303 247 218 258 260 326 218
34 27 22 19 15 5 360 356 356 356 350 343 341 341 345 334 54 317 33 333 321 157 38 269 249 263 88 103 287 210 210 137 273 282 313 225 278 294 301 268 154 305 214 274 302 2 293
28 20 19 15 12 7 1 356 354 350 348 346 345 340 344 358 266 57 293 323 300 68 14 267 241 173 117 175 314 3 351 52 246 261 66 265 297 350 300 253 160 254 312 290 288 302 14
30 23 15 10 5 359 355 355 353 352 346 342 338 335 341 3 314 277 327 329 54 41 261 320 134 301 327 168 244 134 319 53 34 304 212 256 297 238 244 301 207 293 322 58 51 61 19
24 16 10 9 8 4 0 358 352 348 344 338 332 325 327 304 280 322 3 39 29 140 328 244 254 169 131 266 288 180 267 303 231 10 353 322 249 257 239 324 19 12 16 349 358 2 249
21 18 11 7 4 1 357 355 351 347 343 338 327 317 267 217 296 327 32 46 185 243 225 164 182 240 234 176 226 237 295 294 218 116 90 77 328 206 85 129 297 6 85 121 311 308 288
19 16 11 8 2 2 2 358 353 349 344 338 326 323 330 337 235 102 79 91 218 210 216 202 194 228 274 225 225 310 209 221 216 178 172 152 274 300 182 163 118 351 37 177 253 274 355
19 15 12 6 8 8 0 356 352 347 342 339 319 339 286 331 40 62 94 225 231 219 174 155 205 183 236 216 193 199 223 201 227 188 161 198 302 206 281 132 36 119 162 36 21 347 314
18 13 13 13 8 6 3 1 356 353 348 340 24 350 296 347 78 60 190 228 268 243 202 178 229 238 222 220 207 215 245 265 181 154 117 144 133 283 297 192 174 83 117 80 126 142 200
14 16 11 14 12 4 8 2 359 358 354 11 355 339 308 12 62 160 209 219 317 304 49 266 223 216 204 193 220 229 227 235 158 150 168 202 154 250 239 103 50 194 191 141 123 266 222
14 14 16 15 14 7 4 5 2 357 358 328 330 287 320 69 216 255 300 301 286 312 303 335 274 216 166 204 267 197 230 324 158 160 168 186 219 345 335 14 23 209 203 153 111 87 216
358 359 2 6 4 5 4 3 1 357 350 340 320 325 325 48 7 349 341 283 286 334 278 300 275 123 106 245 225 264 248 353 207 213 167 147 180 196 217 228 179 217 207 188 154 145 216
343 341 347 352 356 357 3 2 2 359 354 58 12 291 360 326 358 344 340 329 316 317 344 351 320 31 338 302 294 235 327 340 340 345 80 149 230 200 257 256 235 231 263 221 203 207 198
330 333 330 328 340 351 356 2 2 2 355 67 10 349 345 302 300 319 284 280 293 348 322 328 36 344 353 305 332 312 341 5 252 17 160 355 254 168 261 267 242 249 236 258 228 240 243
334 331 323 322 318 331 348 350 357 7 19 25 347 336 309 294 328 351 328 4 6 358 301 75 7 339 325 304 324 291 277 259 247 239 212 189 195 137 276 268 317 270 215 231 213 197 166
327 324 326 336 330 320 324 332 343 356 33 123 252 8 13 286 334 334 336 328 324 335 291 311 328 319 269 327 313 284 254 247 237 231 207 191 166 172 275 344 265 247 186 209 213 232 211
329 329 332 335 337 335 325 317 319 323 333 115 229 81 2 291 332 298 317 323 342 326 293 285 277 242 307 311 292 294 294 289 237 230 212 207 181 218 225 210 275 292 279 191 187 264 204
330 328 329 328 331 329 327 324 316 305 308 169 214 157 139 322 257 38 345 301 306 336 320 314 340 327 11 265 242 243 243 268 286 122 26 126 117 211 147 207 255 238 333 148 148 281 250
317 317 317 321 322 322 320 319 315 310 293 232 242 179 126 260 256 201 186 139 314 287 266 294 330 327 324 253 250 250 253 249 249 206 174 141 189 219 225 245 262 222 178 162 165 261 302
318 317 316 316 315 312 312 309 304 303 299 281 243 196 166 233 247 241 204 213 235 195 227 298 336 315 269 256 263 254 241 232 248 229 183 185 183 189 207 234 256 166 76 192 231 260 299
309 309 307 305 306 307 307 305 300 294 297 292 260 219 217 225 251 211 192 224 226 230 242 200 239 294 278 336 320 339 318 334 324 294 312 239 226 205 203 223 221 210 216 221 193 259 252